This is the latest recevied weather packets stored in our database for station/object OE3XAM-13. If no packets are shown the sender has not sent any weather packets the latest 10 day(s).
| Time | Temp. | Humidity | Pressure | Rain* | Wind** | Luminosity | Snow |
|---|---|---|---|---|---|---|---|
| 1777812088 | 26.11° C | 28% | 979 hPa | 0 mm | - | - | - |
| 1777810288 | 26.11° C | 28% | 979 hPa | 0 mm | - | - | - |
| 1777808488 | 26.11° C | 28% | 979 hPa | 0 mm | - | - | - |
| 1777806688 | 26.11° C | 28% | 979 hPa | 0 mm | - | - | - |
| 1777804888 | 24.44° C | 31% | 980 hPa | 0 mm | - | - | - |
| 1777803088 | 23.33° C | 32% | 980 hPa | 0 mm | - | - | - |
| 1777801288 | 22.22° C | 34% | 981 hPa | 0 mm | - | - | - |
| 1777799488 | 21.11° C | 36% | 981 hPa | 0 mm | - | - | - |
| 1777797688 | 19.44° C | 37% | 981 hPa | 0 mm | - | - | - |
| 1777795888 | 18.33° C | 40% | 981 hPa | 0 mm | - | - | - |
| 1777794088 | 16.67° C | 42% | 981 hPa | 0 mm | - | - | - |
| 1777792288 | 15° C | 48% | 981 hPa | 0 mm | - | - | - |
| 1777790488 | 13.89° C | 52% | 982 hPa | 0 mm | - | - | - |
| 1777788688 | 11.67° C | 60% | 981 hPa | 0 mm | - | - | - |
| 1777786888 | 9.44° C | 66% | 981 hPa | 0 mm | - | - | - |
| 1777785088 | 8.33° C | 72% | 981 hPa | 0 mm | - | - | - |
| 1777783288 | 6.67° C | 76% | 981 hPa | 0 mm | - | - | - |
| 1777781488 | 6.67° C | 75% | 981 hPa | 0 mm | - | - | - |
| 1777779688 | 6.67° C | 74% | 981 hPa | 0 mm | - | - | - |
| 1777777888 | 7.22° C | 74% | 981 hPa | 0 mm | - | - | - |
| 1777776088 | 7.22° C | 73% | 981 hPa | 0 mm | - | - | - |
| 1777774288 | 7.78° C | 71% | 982 hPa | 0 mm | - | - | - |
| 1777772488 | 7.78° C | 71% | 982 hPa | 0 mm | - | - | - |
| 1777770688 | 8.33° C | 68% | 982 hPa | 0 mm | - | - | - |
| 1777768888 | 8.89° C | 66% | 982 hPa | 0 mm | - | - | - |
* Rain latest hour (hover to see other rain measurements)
** Current wind speed in m/s (hover to see current wind gust speed)